• In Kazakhstan
  • List of Countries
  • For 7 days
  • Water Temperature
  • Satellite Maps
  • Weather Map
  • News
  • Weather Widgets
  • user-avatar
    Login

    Hourly Weather Lomna

    Today, 23 April, Tuesday

    Time Temperature Precipitation Wind Pressure Humidity
    00:00 +4°C° 0 mm 3 mps 729 mmHg 63%
    01:00 +4°C° 0 mm 3 mps 729 mmHg 63%
    02:00 +3°C° 0 mm 3 mps 729 mmHg 62%
    03:00 +3°C° 0 mm 3 mps 729 mmHg 62%
    04:00 +3°C° 0 mm 3 mps 729 mmHg 62%
    05:00 +4°C° 0 mm 4 mps 729 mmHg 60%
    06:00 +5°C° 0 mm 4 mps 729 mmHg 58%
    07:00 +6°C° 0 mm 4 mps 729 mmHg 56%
    08:00 +8°C° 0 mm 5 mps 729 mmHg 52%
    09:00 +10°C° 0 mm 5 mps 729 mmHg 47%
    10:00 +14°C° 0 mm 6 mps 729 mmHg 42%
    11:00 +14°C° 0 mm 6 mps 729 mmHg 42%
    12:00 +15°C° 0 mm 6 mps 729 mmHg 41%
    13:00 +16°C° 0 mm 6 mps 728 mmHg 40%
    14:00 +16°C° 0 mm 6 mps 728 mmHg 43%
    15:00 +15°C° 0 mm 6 mps 728 mmHg 46%
    16:00 +15°C° 0 mm 5 mps 728 mmHg 49%
    17:00 +13°C° 0 mm 5 mps 727 mmHg 53%
    18:00 +12°C° 0 mm 4 mps 727 mmHg 57%
    19:00 +11°C° 0 mm 3 mps 727 mmHg 61%
    20:00 +10°C° 0 mm 3 mps 727 mmHg 62%
    21:00 +10°C° 0 mm 3 mps 727 mmHg 64%
    22:00 +9°C° 0 mm 2 mps 727 mmHg 65%
    23:00 +9°C° 0.2 mm 2 mps 727 mmHg 71%

    Tomorrow, 24 April, Wednesday

    Time Temperature Precipitation Wind Pressure Humidity
    00:00 +8°C° 0.2 mm 2 mps 727 mmHg 76%
    01:00 +8°C° 0.2 mm 2 mps 727 mmHg 82%
    02:00 +7°C° 0.2 mm 2 mps 727 mmHg 83%
    03:00 +7°C° 0.2 mm 2 mps 727 mmHg 85%
    04:00 +7°C° 0.2 mm 2 mps 727 mmHg 86%
    05:00 +8°C° 0 mm 3 mps 727 mmHg 84%
    06:00 +9°C° 0 mm 3 mps 727 mmHg 82%
    07:00 +8°C° 0 mm 4 mps 728 mmHg 79%
    08:00 +11°C° 0 mm 4 mps 728 mmHg 74%
    09:00 +13°C° 0 mm 4 mps 728 mmHg 69%
    10:00 +15°C° 0 mm 4 mps 729 mmHg 63%
    11:00 +14°C° 0.2 mm 4 mps 728 mmHg 66%
    12:00 +14°C° 0.2 mm 4 mps 728 mmHg 69%
    13:00 +14°C° 0.2 mm 4 mps 728 mmHg 72%
    14:00 +14°C° 0.4 mm 4 mps 728 mmHg 74%
    15:00 +14°C° 0.4 mm 3 mps 728 mmHg 76%
    16:00 +14°C° 0.4 mm 3 mps 728 mmHg 78%
    17:00 +14°C° 0 mm 2 mps 728 mmHg 81%
    18:00 +13°C° 0 mm 2 mps 728 mmHg 85%
    19:00 +12°C° 0 mm 2 mps 728 mmHg 88%
    20:00 +12°C° 0 mm 2 mps 728 mmHg 89%
    21:00 +10°C° 0 mm 2 mps 728 mmHg 89%
    22:00 +10°C° 0 mm 2 mps 728 mmHg 89%
    23:00 +10°C° 0 mm 2 mps 728 mmHg 89%

    Day after tomorrow, 25 April, Thursday

    Time Temperature Precipitation Wind Pressure Humidity
    00:00 +10°C° 0 mm 2 mps 728 mmHg 89%
    01:00 +10°C° 0 mm 2 mps 728 mmHg 89%
    02:00 +10°C° 0 mm 2 mps 728 mmHg 88%
    03:00 +10°C° 0 mm 2 mps 728 mmHg 87%
    04:00 +10°C° 0 mm 3 mps 728 mmHg 86%
    05:00 +12°C° 0 mm 3 mps 728 mmHg 81%
    06:00 +13°C° 0 mm 4 mps 728 mmHg 75%
    07:00 +15°C° 0 mm 4 mps 729 mmHg 70%
    08:00 +16°C° 0 mm 5 mps 729 mmHg 64%
    09:00 +19°C° 0 mm 5 mps 729 mmHg 59%
    10:00 +21°C° 0 mm 6 mps 729 mmHg 53%
    11:00 +21°C° 0 mm 6 mps 729 mmHg 51%
    12:00 +22°C° 0 mm 6 mps 728 mmHg 50%
    13:00 +22°C° 0 mm 6 mps 728 mmHg 48%
    14:00 +22°C° 0 mm 5 mps 728 mmHg 52%
    15:00 +21°C° 0 mm 5 mps 728 mmHg 57%
    16:00 +21°C° 0 mm 4 mps 727 mmHg 61%
    17:00 +19°C° 0 mm 4 mps 727 mmHg 67%
    18:00 +18°C° 0 mm 3 mps 727 mmHg 73%
    19:00 +17°C° 0 mm 3 mps 727 mmHg 79%
    20:00 +16°C° 0 mm 3 mps 727 mmHg 81%
    21:00 +16°C° 0 mm 3 mps 727 mmHg 82%
    22:00 +16°C° 0 mm 3 mps 727 mmHg 84%
    23:00 +14°C° 0 mm 3 mps 727 mmHg 84%

    26 April, Friday

    Time Temperature Precipitation Wind Pressure Humidity
    00:00 +14°C° 0 mm 3 mps 727 mmHg 85%
    01:00 +14°C° 0 mm 3 mps 727 mmHg 86%
    02:00 +13°C° 0 mm 3 mps 727 mmHg 87%
    03:00 +13°C° 0 mm 3 mps 727 mmHg 88%
    04:00 +13°C° 0 mm 3 mps 726 mmHg 89%
    05:00 +14°C° 0 mm 4 mps 726 mmHg 81%
    06:00 +17°C° 0 mm 4 mps 726 mmHg 73%
    07:00 +17°C° 0 mm 5 mps 726 mmHg 65%
    08:00 +19°C° 0 mm 5 mps 726 mmHg 61%
    09:00 +21°C° 0 mm 6 mps 726 mmHg 57%
    10:00 +22°C° 0 mm 6 mps 726 mmHg 54%
    11:00 +23°C° 0 mm 6 mps 726 mmHg 51%
    12:00 +24°C° 0 mm 6 mps 726 mmHg 49%
    13:00 +24°C° 0 mm 6 mps 726 mmHg 47%
    14:00 +25°C° 0 mm 5 mps 725 mmHg 49%
    15:00 +25°C° 0 mm 5 mps 725 mmHg 52%
    16:00 +23°C° 0 mm 4 mps 725 mmHg 54%
    17:00 +22°C° 0 mm 4 mps 725 mmHg 62%
    18:00 +20°C° 0 mm 3 mps 724 mmHg 69%
    19:00 +18°C° 0 mm 3 mps 724 mmHg 77%
    20:00 +17°C° 0.1 mm 3 mps 724 mmHg 79%
    21:00 +17°C° 0.1 mm 3 mps 724 mmHg 81%
    22:00 +16°C° 0.1 mm 3 mps 724 mmHg 82%
    23:00 +16°C° 0.1 mm 3 mps 724 mmHg 83%

    27 April, Saturday

    Time Temperature Precipitation Wind Pressure Humidity
    00:00 +16°C° 0.1 mm 2 mps 724 mmHg 83%
    01:00 +16°C° 0.1 mm 2 mps 723 mmHg 83%
    02:00 +15°C° 0.4 mm 2 mps 723 mmHg 84%
    03:00 +15°C° 0.4 mm 2 mps 723 mmHg 86%
    04:00 +15°C° 0.4 mm 2 mps 723 mmHg 87%
    05:00 +16°C° 0.2 mm 2 mps 723 mmHg 84%
    06:00 +17°C° 0.2 mm 3 mps 723 mmHg 81%
    07:00 +18°C° 0.2 mm 3 mps 723 mmHg 78%
    08:00 +18°C° 1.4 mm 2 mps 723 mmHg 76%
    09:00 +19°C° 1.4 mm 2 mps 723 mmHg 75%
    10:00 +19°C° 1.4 mm 2 mps 723 mmHg 74%
    11:00 +19°C° 1.4 mm 2 mps 723 mmHg 74%
    12:00 +19°C° 1.4 mm 2 mps 723 mmHg 74%
    13:00 +19°C° 1.4 mm 2 mps 723 mmHg 74%
    14:00 +19°C° 1.6 mm 2 mps 722 mmHg 76%
    15:00 +18°C° 1.6 mm 2 mps 722 mmHg 78%
    16:00 +18°C° 1.6 mm 2 mps 722 mmHg 81%
    17:00 +16°C° 2.1 mm 2 mps 722 mmHg 85%
    18:00 +14°C° 2.1 mm 3 mps 722 mmHg 90%
    19:00 +12°C° 2.1 mm 3 mps 723 mmHg 94%
    20:00 +12°C° 0.6 mm 3 mps 723 mmHg 95%
    21:00 +11°C° 0.6 mm 3 mps 723 mmHg 95%
    22:00 +10°C° 0.6 mm 2 mps 723 mmHg 96%
    23:00 +10°C° 0 mm 2 mps 724 mmHg 95%

    28 April, Sunday

    Time Temperature Precipitation Wind Pressure Humidity
    00:00 +10°C° 0 mm 2 mps 724 mmHg 95%
    01:00 +10°C° 0 mm 2 mps 724 mmHg 95%
    02:00 +10°C° 0 mm 3 mps 724 mmHg 95%
    03:00 +9°C° 0 mm 3 mps 724 mmHg 95%
    04:00 +9°C° 0 mm 3 mps 724 mmHg 95%
    05:00 +9°C° 0.1 mm 3 mps 725 mmHg 94%
    06:00 +8°C° 0.1 mm 4 mps 725 mmHg 94%
    07:00 +8°C° 0.1 mm 4 mps 725 mmHg 94%
    08:00 +8°C° 0.4 mm 4 mps 726 mmHg 94%
    09:00 +7°C° 0.4 mm 4 mps 726 mmHg 94%
    10:00 +7°C° 0.4 mm 4 mps 726 mmHg 94%
    11:00 +7°C° 0.5 mm 4 mps 727 mmHg 94%
    12:00 +6°C° 0.5 mm 4 mps 727 mmHg 94%
    13:00 +6°C° 0.5 mm 5 mps 727 mmHg 94%
    14:00 +6°C° 0.2 mm 5 mps 727 mmHg 94%
    15:00 +6°C° 0.2 mm 4 mps 727 mmHg 93%
    16:00 +6°C° 0.2 mm 4 mps 727 mmHg 93%
    17:00 +6°C° 0.1 mm 4 mps 727 mmHg 93%
    18:00 +7°C° 0.1 mm 3 mps 728 mmHg 93%
    19:00 +6°C° 0.1 mm 2 mps 728 mmHg 94%
    20:00 +6°C° 0 mm 2 mps 728 mmHg 94%
    21:00 +6°C° 0 mm 2 mps 728 mmHg 94%
    22:00 +7°C° 0 mm 1 mps 728 mmHg 93%
    23:00 +7°C° 0 mm 1 mps 728 mmHg 94%
    Show more